SCP
0 0 0 0 0 0 0 0 0 0 0 0 0 0 0 0 0 0 0 0 0 0 0 0 0 0 0 0 0 0 0 0 0 0 0 0 0 0 0 0 0 0 0
0 0 0 0 0 0 0 0 0 0 0 0 0 0 0 0 0 0 0 0 0 0 0 0 0 0 0 0 0 0 0 0 0 0 0 0 0 0 0 0 0 0 0
0 0 0 0 0 0 0 0 0 0 0 0 0 0 0 0 0 0 0 0 0 0 0 0 0 0 0 0 0 0 0 0 0 0 0 0 0 0 0 0 0 0 0
0 0 0 0 0 0 0 0 0 0 0 0 0 0 0 0 0 0 0 0 0 0 0 0 0 0 0 0 0 0 0 0 0 0 0 0 0 0 0 0 0 0 0
0 0 0 0 0 0 0 0 0 0 0 0 0 0 0 0 0 0 0 0 0 0 0 0 0 0 0 0 0 0 0 0 0 0 0 0 0 0 0 0 0 0 0
0 0 0 0 0 0 0 0 0 0 0 0 0 0 0 0 0 0 0 0 0 0 0 0 0 0 0 0 0 0 0 0 0 0 0 0 0 0 0 0 0 0 0
0 0 0 0 0 0 0 0 0 0 0 0 0 0 0 0 0 0 0 0 0 0 0 0 0 0 0 0 0 0 0 0 0 0 0 0 0 0 0 0 0 0 0
0 0 0 0 0 0 0 0 0 0 0 0 0 0 0 0 0 0 0 0 0 0 0 0 0 0 0 0 0 0 0 0 0 0 0 0 0 0 0 0 0 0 0
0 0 0 0 0 0 0 0 0 0 0 0 0 0 0 0 0 0 0 0 0 0 0 0 0 0 0 0 0 0 0 0 0 0 0 0 0 0 0 0 0 0 0
0 0 0 0 0 0 0 0 0 0 0 0 0 0 0 0 0 0 0 0 0 0 0 0 0 0 0 0 0 0 0 0 0 0 0 0 0 0 0 0 0 0 0
0 0 0 0 0 0 0 0 0 0 0 0 0 0 0 0 0 0 0 0 0 0 0 0 0 0 0 0 0 0 0 0 0 0 0 0 0 0 0 0 0 0 0
0 0 0 0 0 0 0 0 0 0 0 0 0 0 0 0 0 0 0 0 0 0 0 0 0 0 0 0 0 0 0 0 0 0 0 0 0 0 0 0 0 0 0
0 0 0 0 0 0 0 0 0 0 0 0 0 0 0 0 0 0 0 0 0 0 0 0 0 0 0 0 0 0 0 0 0 0 0 0 0 0 0 0 0 0 0
0 0 0 0 0 0 0 0 0 0 0 0 0 0 0 0 0 0 0 0 0 0 0 0 0 0 0 0 0 0 0 0 0 0 0 0 0 0 0 0 0 0 0
0 0 0 0 0 0 0 0 0 0 0 0 0 0 0 0 0 0 0 0 0 0 0 0 0 0 0 0 0 0 0 0 0 0 0 0 0 0 0 0 0 0 0
0 0 0 0 0 0 0 0 0 0 0 0 0 0 0 0 0 0 0 0 0 0 0 0 0 0 0 0 0 0 0 0 0 0 0 0 0 0 0 0 0 0 0
0 0 0 0 0 0 0 0 0 0 0 0 0 0 0 0 0 0 0 0 0 0 0 0 0 0 0 0 0 0 0 0 0 0 0 0 0 0 0 0 0 0 0
0 0 0 0 0 0 0 0 0 0 0 0 0 0 0 0 0 0 0 0 0 0 0 0 0 0 0 0 0 0 0 0 0 0 0 0 0 0 0 0 0 0 0
0 0 0 0 0 0 0 0 0 0 0 0 0 0 0 0 0 0 0 0 0 0 0 0 0 0 0 0 0 0 0 0 0 0 0 0 0 0 0 0 0 0 0
0 0 0 0 0 0 0 0 0 0 0 0 0 0 0 0 0 0 0 0 0 0 0 0 0 0 0 0 0 0 0 0 0 0 0 0 0 0 0 0 0 0 0
0 0 0 0 0 0 0 0 0 0 0 0 0 0 0 0 0 0 0 0 0 0 0 0 0 0 0 0 0 0 0 0 0 0 0 0 0 0 0 0 0 0 0
0 0 0 0 0 0 0 0 0 0 0 0 0 0 0 0 0 0 0 0 0 0 0 0 0 0 0 0 0 0 0 0 0 0 0 0 0 0 0 0 0 0 0
0 0 0 0 0 0 0 0 0 0 0 0 0 0 0 0 0 0 0 0 0 0 0 0 0 0 0 0 0 0 0 0 0 0 0 0 0 0 0 0 0 0 0
0 0 0 0 0 0 0 0 0 0 0 0 0 0 0 0 0 0 0 0 0 0 0 0 0 0 0 0 0 0 0 0 0 0 0 0 0 0 0 0 0 0 0
0 0 0 0 0 0 0 0 0 0 0 0 0 0 0 0 0 0 0 0 0 0 0 0 0 0 0 0 0 0 0 0 0 0 0 0 0 0 0 0 0 0 0
0 0 0 0 0 0 0 0 0 0 0 0 0 0 0 0 0 0 0 0 0 0 0 0 0 0 0 0 0 0 0 0 0 0 0 0 0 0 0 0 0 0 0
Wind_Speed
3 3 2 3 3 3 3 4 4 5 5 5 6 6 6 6 6 5 5 11 12 11 10 10 10 11 11 11 11 11 11 10 10 10 9 9 8 7 7 7 7 7 7
2 3 3 3 3 3 3 4 4 4 4 4 5 6 6 5 6 6 5 8 13 13 12 11 11 10 10 11 10 10 11 11 11 11 11 10 9 8 7 7 8 8 8
3 3 3 3 2 3 4 4 4 4 4 4 5 5 5 5 6 6 6 5 6 10 12 12 11 11 10 10 10 10 10 10 11 11 11 11 10 9 8 7 8 8 9
3 3 3 2 2 3 3 4 3 4 4 4 4 4 4 4 6 5 5 6 5 5 8 12 11 11 11 10 10 11 10 9 10 10 10 10 10 9 8 8 8 9 9
3 3 2 2 3 3 3 3 3 3 3 3 3 4 4 4 4 5 6 6 5 5 5 9 12 11 11 11 10 10 10 10 9 9 9 10 9 9 9 9 8 9 9
4 3 3 3 3 3 3 3 4 3 3 2 4 4 4 3 4 4 4 4 5 6 6 6 6 7 11 11 10 9 9 9 9 10 10 10 9 9 9 9 9 9 9
4 4 3 2 2 3 3 3 3 4 2 1 3 3 3 4 4 3 3 4 5 5 5 5 4 4 5 9 9 8 8 8 8 9 9 9 9 8 8 8 9 8 9
3 4 4 3 3 3 3 3 3 2 1 1 2 2 2 3 4 4 3 3 3 3 4 5 5 5 4 3 6 8 8 7 7 8 8 8 8 9 9 9 9 8 8
2 2 3 3 3 3 3 2 2 3 2 1 1 2 2 1 2 3 3 3 3 3 3 3 4 4 4 4 4 5 7 7 7 7 7 8 8 8 8 8 9 9 9
2 2 3 3 3 2 3 3 2 2 3 1 1 1 2 2 2 1 2 2 3 3 3 3 3 3 4 3 4 6 7 7 7 7 6 7 7 7 7 8 8 8 8
1 2 3 3 3 2 3 3 2 2 2 2 2 1 1 2 2 2 1 2 2 2 2 2 2 2 3 3 2 4 7 7 7 7 7 7 8 7 7 8 8 8 8
1 1 2 2 3 2 3 3 3 3 2 2 2 2 2 2 2 2 1 1 1 2 2 2 2 2 2 2 2 4 5 6 6 7 7 7 8 8 8 8 7 7 7
1 2 2 2 2 2 3 3 3 3 3 3 2 2 2 2 2 2 2 1 0 2 2 2 1 1 1 1 2 3 4 5 5 6 6 7 7 7 7 6 6 7 7
3 3 3 3 3 3 3 3 2 3 3 3 3 2 2 2 2 3 3 3 1 1 2 2 1 1 1 1 1 2 2 4 4 5 5 5 6 6 6 5 6 6 6
2 3 3 3 3 3 3 3 2 2 2 2 2 3 2 1 2 2 2 3 3 1 2 2 1 1 1 0 1 1 1 2 3 4 4 4 4 4 5 5 6 6 5
2 3 3 4 3 3 3 3 2 2 2 2 2 2 2 1 2 2 2 2 2 3 2 2 2 1 1 1 1 1 1 1 2 2 3 3 3 4 4 4 5 5 4
3 3 3 3 3 3 3 3 3 3 3 2 2 2 2 2 2 2 2 2 2 2 2 1 1 1 0 0 1 1 1 1 1 1 1 1 2 3 3 3 3 3 4
3 3 3 3 3 3 3 4 3 3 3 3 3 3 3 2 2 2 2 3 2 3 3 2 1 0 1 1 0 1 1 0 0 1 0 0 1 1 2 2 2 2 2
3 3 3 3 4 3 4 4 4 4 4 4 4 4 4 3 3 3 3 3 2 2 2 3 1 1 0 0 1 1 1 1 1 1 1 1 1 0 0 1 1 1 1
3 3 4 4 4 4 4 4 4 4 4 4 4 4 4 5 5 5 4 4 3 3 2 2 1 1 1 0 1 0 1 1 1 1 1 1 1 1 1 1 1 2 2
3 3 3 3 3 3 4 4 4 4 4 3 3 3 4 5 6 5 4 5 5 4 3 2 2 1 1 1 2 2 1 0 1 1 0 1 1 0 1 2 2 3 3
2 2 3 3 3 4 6 7 5 4 4 4 3 3 3 4 6 7 7 7 8 6 6 4 3 3 4 3 2 2 2 1 2 1 1 1 0 1 2 2 3 4 4
2 3 3 3 4 4 6 6 7 4 4 4 4 3 3 3 4 3 5 6 7 9 9 6 6 6 5 5 5 3 3 3 3 2 2 1 1 2 2 2 5 5 4
2 2 3 3 3 4 6 6 6 4 3 4 4 5 4 4 4 4 3 3 3 5 7 5 6 6 6 5 6 6 5 2 0 1 2 2 1 2 2 2 5 5 5
1 2 2 3 3 4 5 5 4 2 2 3 4 4 4 4 6 6 5 4 3 3 5 6 6 6 6 7 7 4 4 3 2 2 2 2 2 1 2 2 3 5 5
2 2 2 2 3 4 4 4 4 2 2 2 2 3 5 6 6 6 5 5 5 4 3 3 4 4 4 5 9 7 6 4 2 3 3 3 2 1 2 2 1 2 3
Wind_Direction
76 69 61 55 57 62 70 70 67 60 55 48 47 50 48 43 37 33 25 44 53 57 62 66 70 72 71 69 66 64 64 62 59 59 61 65 71 78 81 80 85 90 91
92 88 77 64 60 64 72 79 76 69 59 53 48 44 43 41 37 35 30 32 42 48 53 60 65 69 69 67 66 64 65 63 63 62 61 61 66 71 75 77 82 83 84
101 99 91 80 72 79 83 83 75 67 63 57 48 43 42 39 38 35 32 29 26 36 46 53 58 63 66 66 66 65 65 65 65 62 61 62 62 66 72 80 85 85 83
113 103 95 89 86 86 86 87 80 75 64 59 52 41 39 35 32 35 38 32 28 26 33 44 51 57 60 63 65 64 65 65 66 64 63 63 63 62 68 78 85 87 85
116 110 104 102 101 91 83 94 79 85 82 70 66 53 40 35 26 32 36 33 29 28 29 33 41 50 55 57 60 62 64 67 67 67 66 64 64 65 68 75 81 84 84
119 114 104 101 103 96 83 88 91 75 79 78 75 60 40 32 33 28 27 29 28 29 34 34 30 32 43 47 52 59 62 65 66 66 64 63 61 64 69 72 79 84 84
125 122 117 108 106 109 114 111 104 89 72 68 76 48 25 30 35 24 21 29 26 23 28 32 31 29 22 31 39 53 58 61 63 64 65 66 65 66 71 76 79 85 86
137 140 136 134 127 114 107 111 109 103 75 50 95 85 26 4 5 16 18 24 17 19 26 28 30 30 24 16 24 43 49 55 58 62 63 64 66 70 73 74 78 82 88
136 136 143 137 139 140 146 145 133 126 129 50 65 118 121 221 330 350 9 16 13 17 12 15 25 22 23 17 8 27 42 46 53 58 58 62 65 68 75 81 78 78 81
138 136 140 142 147 146 153 167 153 140 134 136 75 69 119 151 140 347 341 357 8 12 4 7 13 14 15 13 14 28 40 40 44 49 57 60 64 69 79 87 87 83 79
142 150 152 154 160 160 167 172 158 155 150 153 151 135 103 80 105 141 288 331 351 350 352 355 3 7 9 13 10 33 41 40 39 43 51 58 67 75 82 88 88 86 83
182 179 164 169 175 173 179 184 176 171 173 161 161 154 152 152 170 156 176 263 313 320 340 351 358 353 358 11 14 35 41 42 42 41 44 52 62 71 78 83 86 87 84
208 207 185 188 186 190 190 178 172 183 183 180 181 180 176 177 158 152 147 167 305 314 327 331 322 334 349 7 359 26 40 48 46 44 44 46 51 59 68 76 84 88 88
212 202 193 197 195 190 189 176 179 191 181 187 192 183 178 186 167 164 160 151 133 330 332 303 318 326 337 345 353 21 29 48 48 47 48 48 51 53 59 68 77 81 82
210 197 195 194 198 195 189 177 185 196 178 188 193 185 182 188 174 173 162 157 154 176 277 280 293 317 327 331 359 43 29 35 46 49 50 55 61 60 61 63 65 65 65
201 187 191 192 195 196 189 178 180 186 175 194 184 172 183 184 169 162 159 156 155 162 202 249 244 283 310 12 46 57 17 24 38 47 51 59 66 72 76 71 68 68 67
197 197 196 187 190 193 189 183 189 182 186 200 192 183 204 178 170 170 156 153 161 153 172 256 268 312 318 6 21 25 13 353 356 10 35 53 69 73 74 70 68 63 62
201 201 194 191 199 196 187 184 193 188 193 204 207 194 212 184 186 178 170 178 182 177 162 187 233 253 250 252 335 5 354 354 314 313 330 97 85 85 81 73 66 66 62
202 199 193 200 206 200 192 197 196 195 199 206 204 203 210 186 200 193 184 186 188 176 158 161 191 198 248 355 48 10 7 357 313 281 261 243 235 205 165 143 121 117 102
200 207 209 212 208 199 197 201 199 202 205 209 209 208 204 197 204 195 190 190 177 164 155 155 165 183 197 235 124 153 352 346 316 325 332 300 268 253 234 216 206 198 203
217 212 209 218 212 202 208 202 197 199 203 213 218 217 214 210 208 196 189 184 174 171 166 167 179 172 197 192 208 193 190 302 311 278 11 325 318 314 281 256 239 228 224
221 210 213 216 219 227 225 210 197 195 199 205 217 225 228 223 224 215 208 192 182 179 182 182 190 200 216 207 179 175 161 146 272 261 168 275 188 248 267 251 248 237 230
209 216 220 213 223 238 231 219 210 193 196 206 209 213 229 223 212 207 216 213 207 207 197 183 188 207 206 200 175 174 184 187 214 215 161 242 227 250 261 260 249 238 232
216 223 229 221 224 244 239 230 218 199 201 211 211 209 214 225 209 187 179 190 211 219 217 208 206 214 208 193 185 185 182 171 250 258 168 210 229 246 274 260 255 243 240
235 231 230 223 228 253 245 229 207 187 204 224 226 218 215 220 216 191 169 184 219 247 235 221 227 227 216 198 176 145 150 159 218 235 191 193 220 241 267 259 257 252 248
227 234 246 238 231 245 248 231 208 184 201 223 231 231 230 225 219 200 186 185 211 235 218 219 230 236 219 202 191 182 178 179 186 224 201 186 196 183 269 261 256 265 258